Weather History for Hurlburt Field, FL

Change the Weather History Date:

Tuesday, November 27, 2012

  Actual Average Record
Temperature  
Mean Temperature 62 °F -  
Max Temperature 68 °F 65 °F 77 °F (2001)
Min Temperature 55 °F 46 °F 32 °F (2013)
Degree Days  
Heating Degree Days 4    
Growing Degree Days 12 (Base 50)    
Moisture  
Dew Point 61 °F    
Average Humidity 96    
Maximum Humidity 100    
Minimum Humidity 78    
Precipitation  
Precipitation 1.14 in - - ()
Sea Level Pressure  
Sea Level Pressure 30.17 in    
Wind  
Wind Speed 7 mph (NNW)    
Max Wind Speed 17 mph    
Max Gust Speed 30 mph    
Visibility 8 miles    
Events Rain    
Averages and records for this station are not official NWS values.
T = Trace of Precipitation, MM = Missing Value Source: NWS Daily Summary

Daily Weather History Graph

Daily Weather History Graph

Search for Another Location

Airport:

Trip Planner

Search our weather history database for the weather conditions in past years. The results will help you decide how hot, cold, wet, or windy it might be!

Date:

Astronomy

Nov. 27, 2012 Rise Set
Actual Time 6:23 AM CST 4:45 PM CST
Civil Twilight 5:57 AM CST 5:11 PM CST
Nautical Twilight 5:27 AM CST 5:41 PM CST
Astronomical Twilight 4:58 AM CST 6:10 PM CST
Moon 4:16 PM CST (11/27) 5:29 AM CST (11/27)
Length of Visible Light 11h 14m
Length of Day
10h 22m
Waxing Gibbous, 99% of the Moon is Illuminated
Nov 27
Waxing Gibbous
Nov 28
Full
Dec 6
Last Quarter
Dec 13
New
Dec 19
First Quarter

Hourly Weather History & Observations

Time (CST) Temp. Dew Point Humidity Pressure Visibility Wind Dir Wind Speed Gust Speed Precip Events Conditions
12:50 AM 68.0 °F 60.8 °F 78% 30.14 in 10.0 mi South 9.2 mph - N/A   Light Drizzle
12:55 AM 67.1 °F 60.6 °F 80% 30.14 in 10.0 mi South 9.2 mph - 0.00 in   Light Drizzle
1:54 AM 66.2 °F 62.6 °F 88% 30.13 in 10.0 mi South 9.2 mph - N/A   Scattered Clouds
1:55 AM 65.7 °F 61.9 °F 88% 30.13 in 10.0 mi South 9.2 mph - 0.00 in   Scattered Clouds
2:08 AM 66.2 °F 60.8 °F 83% 30.12 in 10.0 mi South 9.2 mph - N/A Rain Light Rain
2:18 AM 66.2 °F 62.6 °F 88% 30.12 in 10.0 mi South 6.9 mph - N/A   Mostly Cloudy
2:55 AM 66.7 °F 62.2 °F 85% 30.12 in 10.0 mi South 9.2 mph - 0.00 in   Overcast
3:55 AM 67.5 °F 62.1 °F 83% 30.11 in 10.0 mi SSW 8.1 mph - N/A   Overcast
4:03 AM 68.0 °F 62.6 °F 83% 30.11 in 10.0 mi South 8.1 mph - N/A   Light Drizzle
4:34 AM 68.0 °F 62.6 °F 83% 30.10 in 10.0 mi South 8.1 mph - N/A   Overcast
4:55 AM 67.6 °F 62.4 °F 83% 30.11 in 10.0 mi South 8.1 mph - 0.00 in   Light Drizzle
4:57 AM 68.0 °F 62.6 °F 83% 30.11 in 10.0 mi South 6.9 mph - N/A   Light Drizzle
5:04 AM 68.0 °F 62.6 °F 83% 30.11 in 10.0 mi South 9.2 mph - N/A Rain Light Rain
5:53 AM 64.4 °F 62.6 °F 94% 30.12 in 10.0 mi Calm Calm - N/A Rain Light Rain
5:55 AM 64.4 °F 63.1 °F 96% 30.12 in 10.0 mi Calm Calm - 0.02 in Rain Light Rain
6:09 AM 64.4 °F 62.6 °F 94% 30.12 in 10.0 mi Calm Calm - N/A Rain Light Rain
6:32 AM 64.4 °F 64.4 °F 100% 30.12 in 10.0 mi Calm Calm - N/A Rain Light Rain
6:34 AM 64.4 °F 64.4 °F 100% 30.12 in 10.0 mi Calm Calm - N/A Rain Light Rain
6:55 AM 64.4 °F 63.0 °F 95% 30.12 in 10.0 mi South 5.8 mph - 0.03 in Rain Light Rain
7:11 AM 64.4 °F 62.6 °F 94% 30.13 in 10.0 mi South 4.6 mph - N/A Rain Light Rain
7:31 AM 64.4 °F 62.6 °F 94% 30.13 in 10.0 mi Calm Calm - N/A Rain Light Rain
7:55 AM 64.6 °F 63.7 °F 97% 30.14 in 10.0 mi Calm Calm - 0.02 in Rain Light Rain
8:06 AM 64.4 °F 64.4 °F 100% 30.14 in 10.0 mi Calm Calm - N/A Rain Light Rain
8:18 AM 64.4 °F 64.4 °F 100% 30.14 in 10.0 mi Calm Calm - N/A   Mostly Cloudy
8:22 AM 66.2 °F 64.4 °F 94% 30.14 in 10.0 mi Calm Calm - N/A   Light Drizzle
8:38 AM 66.2 °F 66.2 °F 100% 30.14 in 10.0 mi Calm Calm - N/A Rain Light Rain
8:46 AM 66.2 °F 66.2 °F 100% 30.14 in 5.0 mi Calm Calm - N/A Rain Light Rain
8:47 AM 66.2 °F 66.2 °F 100% 30.14 in 5.0 mi Calm Calm - N/A Rain Light Rain
8:55 AM 66.2 °F 65.8 °F 99% 30.14 in 3.0 mi Calm Calm - 0.03 in Rain Light Rain
9:23 AM 66.2 °F 66.2 °F 100% 30.14 in 10.0 mi SE 4.6 mph - N/A Rain Light Rain
9:30 AM 66.2 °F 66.2 °F 100% 30.13 in 10.0 mi SE 3.5 mph - N/A Rain Light Rain
9:35 AM 66.2 °F 66.2 °F 100% 30.13 in 9.0 mi SE 3.5 mph - N/A Rain Light Rain
9:43 AM 66.2 °F 66.2 °F 100% 30.13 in 9.0 mi SE 3.5 mph - N/A Rain Light Rain
9:55 AM 65.8 °F 65.5 °F 99% 30.13 in 10.0 mi SE 5.8 mph - 0.03 in Rain Light Rain
10:26 AM 66.2 °F 66.2 °F 100% 30.14 in 9.0 mi SSE 5.8 mph - N/A Rain Light Rain
10:29 AM 66.2 °F 66.2 °F 100% 30.14 in 6.0 mi South 4.6 mph - N/A Rain Light Rain
10:40 AM 66.2 °F 66.2 °F 100% 30.18 in 2.5 mi WNW 10.4 mph 29.9 mph N/A Rain Rain
10:43 AM 66.2 °F 64.4 °F 94% 30.18 in 1.8 mi West 8.1 mph 29.9 mph N/A Rain Rain
10:44 AM 66.2 °F 64.4 °F 94% 30.18 in 1.5 mi West 9.2 mph 29.9 mph N/A Rain Heavy Rain
10:45 AM 64.4 °F 62.6 °F 94% 30.19 in 1.2 mi WNW 11.5 mph 29.9 mph N/A Rain Heavy Rain
10:48 AM 62.6 °F 60.8 °F 94% 30.18 in 1.0 mi NW 17.3 mph 26.5 mph N/A Rain Heavy Rain
10:55 AM 60.6 °F 59.9 °F 97% 30.18 in 1.0 mi NNW 11.5 mph 26.5 mph 0.47 in Rain Heavy Rain
10:56 AM 60.8 °F 59.0 °F 94% 30.18 in 0.8 mi NNW 15.0 mph 26.5 mph N/A Rain Heavy Rain
10:58 AM 60.8 °F 59.0 °F 94% 30.17 in 1.0 mi North 15.0 mph 26.5 mph N/A Rain Heavy Rain
11:00 AM 60.8 °F 59.0 °F 94% 30.17 in 1.0 mi North 15.0 mph 21.9 mph N/A Rain Heavy Rain
11:02 AM 60.8 °F 59.0 °F 94% 30.18 in 1.2 mi North 13.8 mph 21.9 mph N/A Rain Heavy Rain
11:04 AM 60.8 °F 59.0 °F 94% 30.18 in 1.5 mi North 15.0 mph 21.9 mph N/A Rain Heavy Rain
11:05 AM 60.8 °F 59.0 °F 94% 30.18 in 1.8 mi North 15.0 mph 21.9 mph N/A Rain Heavy Rain
11:06 AM 60.8 °F 59.0 °F 94% 30.18 in 2.0 mi North 13.8 mph 21.9 mph N/A Rain Heavy Rain
11:12 AM 59.0 °F 59.0 °F 100% 30.18 in 3.0 mi North 9.2 mph 20.7 mph N/A Rain Heavy Rain
11:47 AM 59.0 °F 59.0 °F 100% 30.16 in 4.0 mi North 8.1 mph - N/A Rain Heavy Rain
11:50 AM 59.0 °F 59.0 °F 100% 30.16 in 4.0 mi North 8.1 mph - N/A Rain Heavy Rain
11:55 AM 59.7 °F 59.7 °F 100% 30.16 in 5.0 mi North 10.4 mph - 0.45 in Rain Rain
12:08 PM 60.8 °F 60.8 °F 100% 30.16 in 5.0 mi North 9.2 mph - N/A Rain Rain
12:55 PM 60.4 °F 60.4 °F 100% 30.13 in 10.0 mi NNE 6.9 mph - 0.07 in Rain Light Rain
1:55 PM 61.3 °F 61.0 °F 99% 30.12 in 10.0 mi East 4.6 mph - 0.02 in Rain Light Rain
1:58 PM 60.8 °F 60.8 °F 100% 30.11 in 10.0 mi East 4.6 mph - N/A   Scattered Clouds
2:20 PM 60.8 °F 60.8 °F 100% 30.11 in 10.0 mi East 3.5 mph - N/A   Light Drizzle
2:55 PM 61.5 °F 61.0 °F 98% 30.10 in 10.0 mi Calm Calm - 0.00 in Rain Light Rain
3:06 PM 60.8 °F 60.8 °F 100% 30.10 in 10.0 mi Calm Calm - N/A   Clear
3:55 PM 61.9 °F 61.3 °F 98% 30.14 in 10.0 mi NW 9.2 mph - 0.00 in   Overcast
4:55 PM 60.8 °F 60.4 °F 99% 30.16 in 10.0 mi NNW 6.9 mph - N/A   Overcast
5:47 PM 59.0 °F 59.0 °F 100% 30.18 in 10.0 mi NW 5.8 mph - N/A   Mostly Cloudy
5:48 PM 59.0 °F 59.0 °F 100% 30.18 in 10.0 mi NW 5.8 mph - N/A   Scattered Clouds
5:49 PM 59.0 °F 59.0 °F 100% 30.18 in 10.0 mi NW 5.8 mph - N/A   Mostly Cloudy
5:55 PM 59.9 °F 59.9 °F 100% 30.19 in 10.0 mi NW 6.9 mph - N/A   Mostly Cloudy
6:05 PM 60.8 °F 59.0 °F 94% 30.19 in 10.0 mi NW 4.6 mph - N/A   Overcast
6:37 PM 59.0 °F 59.0 °F 100% 30.18 in 10.0 mi NW 3.5 mph - N/A   Scattered Clouds
6:46 PM 59.0 °F 59.0 °F 100% 30.19 in 10.0 mi NNW 4.6 mph - N/A   Mostly Cloudy
6:55 PM 59.7 °F 59.7 °F 100% 30.19 in 10.0 mi NNW 6.9 mph - N/A   Mostly Cloudy
7:27 PM 59.0 °F 59.0 °F 100% 30.20 in 10.0 mi NNW 6.9 mph - N/A   Scattered Clouds
7:55 PM 59.2 °F 59.2 °F 100% 30.21 in 10.0 mi North 6.9 mph - N/A   Scattered Clouds
7:57 PM 59.0 °F 59.0 °F 100% 30.21 in 10.0 mi North 5.8 mph - N/A   Mostly Cloudy
8:02 PM 59.0 °F 59.0 °F 100% 30.21 in 10.0 mi North 5.8 mph - N/A   Mostly Cloudy
8:21 PM 59.0 °F 59.0 °F 100% 30.21 in 10.0 mi North 5.8 mph - N/A   Overcast
8:55 PM 59.0 °F 59.0 °F 100% 30.22 in 10.0 mi NNW 5.8 mph - N/A   Overcast
9:46 PM 57.2 °F 57.2 °F 100% 30.23 in 10.0 mi NNW 8.1 mph - N/A   Overcast
9:55 PM 57.7 °F 57.6 °F 99% 30.24 in 10.0 mi NNW 8.1 mph - N/A   Overcast
10:36 PM 57.2 °F 57.2 °F 100% 30.23 in 10.0 mi NNW 10.4 mph - N/A   Overcast
10:42 PM 57.2 °F 57.2 °F 100% 30.25 in 10.0 mi NNW 10.4 mph - N/A   Overcast
10:44 PM 57.2 °F 57.2 °F 100% 30.25 in 10.0 mi NNW 10.4 mph - N/A   Overcast
10:45 PM 57.2 °F 57.2 °F 100% 30.25 in 10.0 mi NNW 10.4 mph - N/A   Overcast
10:47 PM 57.2 °F 57.2 °F 100% 30.25 in 10.0 mi NNW 8.1 mph - N/A   Overcast
10:55 PM 56.8 °F 56.3 °F 98% 30.25 in 10.0 mi North 10.4 mph - N/A   Overcast
10:58 PM 57.2 °F 55.4 °F 94% 30.25 in 10.0 mi North 11.5 mph - N/A   Overcast
11:05 PM 57.2 °F 55.4 °F 94% 30.24 in 10.0 mi NNW 11.5 mph - N/A   Overcast
11:14 PM 55.4 °F 55.4 °F 100% 30.24 in 10.0 mi North 11.5 mph - N/A   Overcast
11:20 PM 55.4 °F 55.4 °F 100% 30.24 in 10.0 mi North 12.7 mph - N/A   Overcast
11:37 PM 55.4 °F 55.4 °F 100% 30.23 in 10.0 mi North 11.5 mph - N/A   Mostly Cloudy
11:39 PM 55.4 °F 55.4 °F 100% 30.23 in 10.0 mi North 11.5 mph - N/A   Scattered Clouds
11:46 PM 55.4 °F 53.6 °F 94% 30.23 in 10.0 mi North 12.7 mph - N/A   Mostly Cloudy
11:51 PM 55.4 °F 53.6 °F 94% 30.23 in 10.0 mi North 11.5 mph - N/A   Mostly Cloudy
11:55 PM 55.4 °F 53.6 °F 94% 30.22 in 10.0 mi North 11.5 mph - N/A   Mostly Cloudy